Regional Weather Roundup
Issued by NWS

Home | Current Version | Previous Version | Graphics & Text | Print | Product List | Glossary On
Versions: 1 2 3 4 5 6 7 8 9 10 11 12 13 14 15 16 17 18 19 20 21 22 23 24 25 26 27 28 29 30 31 32 33 34 35 36 37 38 39 40 41 42 43 44 45 46 47 48 49 50
000
ASUS45 KPSR 242200
RWRAZ

PRELIMINARY ARIZONA REGIONAL HOURLY WEATHER ROUNDUP
NATIONAL WEATHER SERVICE PHOENIX AZ
300 PM MST WED DEC 24 2014

NOTE: FAIR INDICATES FEW OR NO CLOUDS BELOW 12,000 FEET WITH NO
SIGNIFICANT WEATHER AND/OR OBSTRUCTIONS TO VISIBILITY.

AZZ001>003-036-242300-
NORTHWEST ARIZONA

CITY           SKY/WX    TMP DP  RH WIND       PRES   REMARKS
KINGMAN        PTSUNNY   55  12  18 SW16      29.97F
$$

AZZ004>008-015-016-018-242300-
NORTH CENTRAL ARIZONA

CITY           SKY/WX    TMP DP  RH WIND       PRES   REMARKS
GRAND CANYON   PTSUNNY   45  13  27 SW8       30.01F
PRESCOTT       CLOUDY    52  12  20 E3        30.01F
FLAGSTAFF      NOT AVBL
PAYSON         PTSUNNY   48  12  23 SW7       30.05S
PAGE           CLOUDY    42  13  30 E5        29.97F
$$

AZZ009>014-017-242300-
NORTHEAST ARIZONA

CITY           SKY/WX    TMP DP  RH WIND       PRES   REMARKS
WINSLOW        NOT AVBL
SAINT JOHNS    SUNNY     46   8  21 E3        30.00F
WINDOW ROCK    SUNNY     46  16  30 S9        29.99F
$$

AZZ023-242300-
GREATER PHOENIX AREA

CITY           SKY/WX    TMP DP  RH WIND       PRES   REMARKS
PHOENIX        PTSUNNY   63  12  13 CALM      29.99F
LUKE AFB       PTSUNNY   62  17  17 CALM      29.99F
DEER VALLEY    PTSUNNY   61   7  11 SW3       29.98F
SCOTTSDALE     MOSUNNY   62  13  14 CALM      30.01F
MESA-FALCON    PTSUNNY   59  12  15 VRB6      29.99
MESA-GATEWAY   MOSUNNY   61  12  15 CALM      30.01F
CHANDLER       PTSUNNY   63  12  14 CALM      30.00F
$$

AZZ027-028-242300-
SOUTHWEST MARICOPA COUNTY AND PINAL COUNTY

CITY           SKY/WX    TMP DP  RH WIND       PRES   REMARKS
CASA GRANDE    MOSUNNY   61  19  20 CALM      29.99F
$$

AZZ503-504-507>509-242300-
SOUTHEAST ARIZONA

CITY           SKY/WX    TMP DP  RH WIND       PRES   REMARKS
TUCSON         SUNNY     65  10  11 E5        29.99F
DAVIS-MONTHAN  SUNNY     64   9  11 E8        29.97F
RYAN FIELD       N/A     66  21  18 E7        29.99F
NOGALES        SUNNY     66   4   8 VRB3      29.99F
SIERRA VISTA   MOSUNNY   57  -2   9 SE9       30.04F
SAFFORD        SUNNY     54  10  17 VRB7      30.04F
$$

AZZ020-021-025-026-031-242300-
SOUTHWEST ARIZONA

CITY           SKY/WX    TMP DP  RH WIND       PRES   REMARKS
YUMA           PTSUNNY  N/A  21 N/A NE8       29.99F
$$

CAZ031-033-041-043-047-048-061-242300-
SOUTHERN CALIFORNIA

CITY           SKY/WX    TMP DP  RH WIND       PRES   REMARKS
DOWNTOWN L.A.  PTSUNNY   73  34  23 VRB3      29.95F
L.A. AIRPORT   PTSUNNY   69  45  41 SW7       29.95F
SAN DIEGO      PTSUNNY   74  38  27 NW6       29.98F
BURBANK        PTSUNNY   72  36  26 S7        29.94F
ONTARIO        CLOUDY    71  35  26 SW5       29.96F
RIVERSIDE      PTSUNNY   71  36  27 W3        29.96F
PALM SPRINGS   CLOUDY    68  18  14 E7        29.98F
EL CENTRO NAS  PTSUNNY   69  19  15 SE6       29.95F
IMPERIAL       SUNNY     69  20  15 SE8       29.95F
BLYTHE         MOSUNNY   65  19  17 VRB5      29.97F
$$

NVZ020-UTZ003-242300-
SOUTHERN NEVADA-UTAH

CITY           SKY/WX    TMP DP  RH WIND       PRES   REMARKS
LAS VEGAS      NOT AVBL
SALT LAKE CITY CLOUDY    42  20  41 VRB5      29.76F
$$

NMZ009-TXZ055-242300-
NEW MEXICO-WEST TEXAS

CITY           SKY/WX    TMP DP  RH WIND       PRES   REMARKS
ALBUQUERQUE    MOSUNNY   41   9  26 N3        30.05F
EL PASO        MOSUNNY   49   9  19 SW9       30.08F
$$


........................KEY........................
SKY/WX - SKY CONDITION/WEATHER
TMP    - TEMPERATURE IN FAHRENHEIT
DP     - DEW POINT IN FAHRENHEIT
RH     - RELATIVE HUMIDITY IN PERCENT
WIND   - DIRECTION AND SPEED IN MILES PER HOUR (MPH)
VRB    - VARIABLE WIND DIRECTION
PRES   - MEAN SEA LEVEL PRESSURE IN INCHES OF MERCURY
         F - FALLING PRESSURE   R - RISING PRESSURE
         S - STEADY PRESSURE
VSB    - VISIBILITY IN MILES
HX     - HEAT INDEX IN FAHRENHEIT
WCI    - WIND CHILL INDEX IN FAHRENHEIT
TC     - TEMPERATURE IN CELSIUS WHICH IS ALSO KNOWN AS
         TEMPERATURE IN CENTIGRADE
AFB    - AIR FORCE BASE
         LUKE AFB IS LUKE AIR FORCE BASE
         DAVIS-MONTHAN IS DAVIS-MONTHAN AIR FORCE BASE
NAS    - NAVAL AIR STATION
         EL CENTRO NAS IS EL CENTRO NAVAL AIR STATION
N/A    - NOT AVAILABLE


USA.gov is the U.S. government's official web portal to all federal, state and local government web resources and services.